Ft Pierce, FL

12:16 AM EDT on April 27, 2017 (GMT -0400)
Saint Lucie County International

Weather History for KFPR - November, 2012

Change the Weather History Date:

Friday, November 16, 2012

  Actual Average Record
Temperature  
Mean Temperature 68 °F -  
Max Temperature 75 °F 79 °F 87 °F (1947)
Min Temperature 60 °F 59 °F 34 °F (1940)
Cooling Degree Days 2    
Growing Degree Days 18 (Base 50)    
Moisture  
Dew Point 62 °F    
Average Humidity 88    
Maximum Humidity 100    
Minimum Humidity 67    
Precipitation  
Precipitation 0.06 in - - ()
Sea Level Pressure  
Sea Level Pressure 30.09 in    
Wind  
Wind Speed 6 mph (NNW)    
Max Wind Speed 12 mph    
Max Gust Speed 21 mph    
Visibility 8 miles    
Events Rain    
Averages and records for this station are not official NWS values.
T = Trace of Precipitation, MM = Missing Value Source: NWS Daily Summary

Daily Weather History Graph

Daily Weather History Graph

Search for Another Location

Airport or City:

Trip Planner

Search our weather history database for the weather conditions in past years. The results will help you decide how hot, cold, wet, or windy it might be!

Date:

Astronomy

Nov. 16, 2012 Rise Set
Actual Time 6:43 AM EST 5:29 PM EST
Civil Twilight 6:18 AM EST 5:53 PM EST
Nautical Twilight 5:50 AM EST 6:22 PM EST
Astronomical Twilight 5:22 AM EST 6:49 PM EST
Moon 9:32 AM EST (11/16) 8:30 PM EST (11/16)
Length of Visible Light 11h 35m
Length of Day
10h 45m
Waxing Crescent, 11% of the Moon is Illuminated
Nov 16
Waxing Crescent
Nov 20
First Quarter
Nov 28
Full
Dec 6
Last Quarter
Dec 13
New

Hourly Weather History & Observations

Time (EST) Temp. Dew Point Humidity Pressure Visibility Wind Dir Wind Speed Gust Speed Precip Events Conditions
12:53 AM 61.0 °F 60.1 °F 97% 30.09 in 5.0 mi NW 4.6 mph - N/A   Clear
1:09 AM 60.8 °F 60.8 °F 100% 30.09 in 5.0 mi Calm Calm - N/A   Partly Cloudy
1:25 AM 62.6 °F 60.8 °F 94% 30.09 in 6.0 mi NNW 5.8 mph - N/A   Mostly Cloudy
1:53 AM 63.0 °F 61.0 °F 93% 30.09 in 6.0 mi NNW 6.9 mph - N/A   Overcast
2:45 AM 62.6 °F 60.8 °F 94% 30.09 in 6.0 mi NNW 4.6 mph - N/A   Overcast
2:53 AM 63.0 °F 61.0 °F 93% 30.09 in 5.0 mi NW 5.8 mph - N/A   Overcast
3:53 AM 63.0 °F 61.0 °F 93% 30.09 in 5.0 mi NW 5.8 mph - N/A   Overcast
4:53 AM 63.0 °F 61.0 °F 93% 30.09 in 7.0 mi WNW 9.2 mph - N/A   Overcast
5:41 AM 62.6 °F 60.8 °F 94% 30.09 in 7.0 mi NNW 5.8 mph - N/A   Overcast
5:53 AM 62.1 °F 61.0 °F 96% 30.09 in 7.0 mi NNW 5.8 mph - N/A   Overcast
6:53 AM 62.1 °F 60.1 °F 93% 30.09 in 5.0 mi NW 4.6 mph - N/A   Overcast
7:25 AM 62.6 °F 60.8 °F 94% 30.10 in 4.0 mi NW 5.8 mph - N/A   Overcast
7:53 AM 63.0 °F 60.1 °F 90% 30.11 in 6.0 mi NW 6.9 mph - N/A   Scattered Clouds
8:17 AM 62.6 °F 60.8 °F 94% 30.12 in 5.0 mi NW 9.2 mph - N/A   Mostly Cloudy
8:53 AM 66.9 °F 62.1 °F 84% 30.13 in 8.0 mi NNW 8.1 mph - N/A   Scattered Clouds
9:53 AM 72.0 °F 63.0 °F 73% 30.12 in 10.0 mi NNW 10.4 mph 18.4 mph N/A   Scattered Clouds
10:53 AM 75.0 °F 64.0 °F 69% 30.11 in 10.0 mi North 10.4 mph 17.3 mph N/A   Partly Cloudy
11:53 AM 75.0 °F 64.0 °F 69% 30.10 in 10.0 mi North 10.4 mph - N/A   Scattered Clouds
12:53 PM 75.0 °F 64.0 °F 69% 30.09 in 10.0 mi North 6.9 mph 18.4 mph N/A   Mostly Cloudy
1:53 PM 75.9 °F 64.0 °F 67% 30.07 in 10.0 mi North 9.2 mph - N/A   Partly Cloudy
2:53 PM 73.0 °F 63.0 °F 71% 30.06 in 10.0 mi North 11.5 mph 18.4 mph N/A   Scattered Clouds
3:53 PM 71.1 °F 62.1 °F 73% 30.07 in 10.0 mi North 11.5 mph 20.7 mph N/A   Overcast
4:53 PM 70.0 °F 62.1 °F 76% 30.07 in 10.0 mi North 9.2 mph 16.1 mph N/A   Mostly Cloudy
5:53 PM 69.1 °F 62.1 °F 78% 30.08 in 10.0 mi Variable 5.8 mph - N/A   Mostly Cloudy
6:06 PM 68.0 °F 62.6 °F 83% 30.09 in 5.0 mi North 6.9 mph - 0.00 in Rain Rain
6:53 PM 66.9 °F 63.0 °F 87% 30.09 in 10.0 mi NNW 6.9 mph - 0.02 in   Mostly Cloudy
7:43 PM 66.2 °F 62.6 °F 88% 30.09 in 6.0 mi Calm Calm - 0.01 in Rain Light Rain
7:53 PM 66.0 °F 63.0 °F 90% 30.10 in 8.0 mi East 4.6 mph - 0.01 in Rain Light Rain
8:39 PM 66.2 °F 64.4 °F 94% 30.11 in 9.0 mi NNW 4.6 mph - 0.03 in Rain Light Rain
8:53 PM 66.0 °F 64.0 °F 93% 30.11 in 7.0 mi Calm Calm - 0.03 in Rain Light Rain
9:12 PM 66.2 °F 64.4 °F 94% 30.10 in 8.0 mi Calm Calm - 0.00 in   Overcast
9:53 PM 64.9 °F 63.0 °F 93% 30.10 in 9.0 mi NW 4.6 mph - 0.00 in   Overcast
10:30 PM 64.4 °F 64.4 °F 100% 30.10 in 9.0 mi Calm Calm - N/A   Mostly Cloudy
10:53 PM 64.9 °F 64.0 °F 97% 30.10 in 8.0 mi NW 3.5 mph - N/A   Overcast
11:12 PM 64.4 °F 62.6 °F 94% 30.10 in 8.0 mi NNW 4.6 mph - N/A   Overcast
11:53 PM 64.9 °F 63.0 °F 93% 30.09 in 8.0 mi NNW 4.6 mph - N/A   Overcast